EW2561 Weather Reports


time (UTC)temp
C
wind
direction
speed
KPH
gust
KPH
rain 1hr
cm
rain 24hr
cm
rain mn
cm
humidity
%
barometer
mb
20260503005027 13 178 0.0 0.0 0.00 0.89 0.03 97 1009.5
20260503004524 13 178 0.0 0.0 0.00 0.89 0.03 97 1009.5
20260503004023 13 178 0.0 0.0 0.00 0.89 0.03 97 1009.5
20260503003521 13 178 0.0 0.0 0.00 0.89 0.03 97 1009.6
20260503003003 13 178 0.0 0.0 0.00 0.89 0.03 97 1009.6
20260503002503 13 178 0.0 0.0 0.00 0.89 0.03 97 1009.6
20260503001932 13 178 0.0 0.0 0.00 0.89 0.03 97 1009.7
20260503001423 13 178 0.0 0.0 0.00 0.89 0.03 97 1009.7
20260503001123 13 178 0.0 0.0 0.00 0.89 0.03 97 1009.8
20260503000401 13 178 0.0 0.0 0.00 0.89 0.03 97 1009.8
20260502235833 13 178 0.0 1.6 0.00 0.89 0.03 97 1009.9
20260502235555 13 178 0.0 1.6 0.00 0.89 0.03 97 1010.0
20260502234828 13 178 0.0 1.6 0.00 0.89 0.03 97 1010.0
20260502234327 13 178 0.0 1.6 0.00 0.89 0.03 97 1010.1
20260502233824 14 178 0.0 3.2 0.00 0.89 0.03 97 1010.2
20260502233319 13 179 0.0 3.2 0.00 0.89 0.03 97 1010.2
20260502232818 14 179 0.0 3.2 0.00 0.89 0.03 97 1010.2
20260502232305 14 188 0.0 3.2 0.00 0.89 0.03 97 1010.2
20260502231802 14 80 0.0 0.0 0.00 0.89 0.03 97 1010.3
20260502231302 14 80 0.0 0.0 0.03 0.89 0.03 96 1010.4
20260502230730 14 80 0.0 1.6 0.03 0.89 0.03 96 1010.4
20260502230231 14 80 0.0 3.2 0.03 0.89 0.03 97 1010.5
20260502225713 14 80 1.6 4.8 0.03 0.89 0.03 97 1010.5
20260502225205 14 18 1.6 4.8 0.03 0.89 0.03 97 1010.7
20260502224641 14 77 1.6 8.0 0.03 0.89 0.03 97 1010.5
20260502224353 14 354 1.6 8.0 0.03 0.89 0.03 97 1010.8
20260502224133 14 354 1.6 8.0 0.03 0.89 0.03 97 1010.8
20260502223631 14 354 1.6 8.0 0.03 0.89 0.03 97 1010.7
20260502223103 14 13 1.6 8.0 0.03 0.89 0.03 97 1010.9
20260502222603 14 253 1.6 6.4 0.03 0.89 0.03 97 1010.5
20260502222031 14 87 1.6 6.4 0.03 0.89 0.03 97 1010.6
20260502221530 13 355 0.0 4.8 0.03 0.89 0.03 97 1010.8
20260502221032 13 139 0.0 0.0 0.00 0.86 0.00 97 1010.4
20260502220532 14 139 0.0 0.0 0.00 0.86 0.00 97 1010.4
20260502220031 14 139 0.0 0.0 0.00 0.86 0.00 97 1010.4
20260502215530 14 139 0.0 0.0 0.00 0.86 0.86 97 1010.4
20260502215032 14 139 0.0 0.0 0.00 0.86 0.86 97 1010.4
20260502214530 14 139 0.0 0.0 0.00 0.86 0.86 97 1010.5
20260502214030 14 139 0.0 0.0 0.00 0.86 0.86 97 1010.5
20260502213533 14 139 0.0 0.0 0.00 0.86 0.86 97 1010.5
20260502213254 14 139 0.0 0.0 0.00 0.86 0.86 97 1010.6
20260502212525 14 139 0.0 0.0 0.00 0.86 0.86 97 1010.6
20260502212508 13 139 0.0 0.0 0.00 0.86 0.86 96 1010.6
20260502211503 13 139 0.0 0.0 0.00 0.86 0.86 96 1010.6
20260502210932 13 139 0.0 0.0 0.00 0.86 0.86 96 1010.6
20260502210433 13 139 0.0 0.0 0.00 0.86 0.86 96 1010.6
20260502205930 13 139 0.0 0.0 0.00 0.86 0.86 96 1010.6
20260502205659 13 139 0.0 0.0 0.00 0.86 0.86 96 1010.6
20260502204934 14 139 0.0 0.0 0.00 0.86 0.86 96 1010.6
20260502204432 14 139 0.0 0.0 0.00 0.86 0.86 96 1010.6
20260502203932 14 139 0.0 0.0 0.00 0.86 0.86 96 1010.6
20260502203425 14 139 0.0 0.0 0.00 0.86 0.86 96 1010.7
20260502202921 14 139 0.0 0.0 0.00 0.86 0.86 96 1010.7
20260502202416 14 139 0.0 0.0 0.00 0.86 0.86 96 1010.6
20260502201904 14 139 0.0 0.0 0.00 0.86 0.86 96 1010.7
20260502201404 14 139 0.0 0.0 0.00 0.86 0.86 96 1010.8
20260502200832 14 139 0.0 0.0 0.00 0.86 0.86 95 1010.8
20260502200329 14 139 0.0 0.0 0.03 0.86 0.86 95 1010.9
20260502195831 14 139 0.0 0.0 0.05 0.86 0.86 95 1010.9
20260502195331 14 139 0.0 0.0 0.05 0.86 0.86 95 1010.8
20260502194831 14 139 0.0 0.0 0.05 0.86 0.86 95 1010.9
20260502194332 14 139 0.0 1.6 0.05 0.86 0.86 95 1010.8
20260502194025 14 139 0.0 1.6 0.05 0.86 0.86 95 1010.9
20260502193303 14 139 0.0 3.2 0.05 0.86 0.86 95 1011.0
20260502192733 14 131 0.0 3.2 0.05 0.86 0.86 95 1010.9
20260502192229 14 193 1.6 4.8 0.05 0.86 0.86 94 1011.0
20260502192218 14 162 1.6 4.8 0.05 0.86 0.86 95 1011.0
20260502191449 14 131 0.0 3.2 0.08 0.86 0.86 95 1011.0
20260502190703 14 192 0.0 3.2 0.10 0.86 0.86 95 1011.0
20260502190203 14 192 0.0 1.6 0.10 0.84 0.84 94 1011.2
20260502185639 14 193 0.0 3.2 0.08 0.81 0.81 94 1011.1
20260502185354 14 227 0.0 4.8 0.10 0.81 0.81 94 1011.4
20260502184632 14 177 0.0 4.8 0.10 0.81 0.81 94 1011.6
20260502184104 14 164 0.0 1.6 0.10 0.79 0.79 94 1011.8
20260502183534 14 266 0.0 4.8 0.13 0.79 0.79 94 1011.6
20260502183032 14 209 0.0 3.2 0.33 0.79 0.79 94 1011.4
20260502182530 14 203 0.0 3.2 0.51 0.79 0.79 94 1011.6
20260502182034 14 268 0.0 1.6 0.51 0.79 0.79 93 1011.7
20260502181751 14 268 0.0 6.4 0.51 0.79 0.79 93 1011.7
20260502181243 14 268 1.6 1.6 0.51 0.79 0.79 93 1011.7
20260502180728 14 288 1.6 6.4 0.48 0.76 0.76 93 1011.6
20260502180449 14 314 0.0 3.2 0.46 0.74 0.74 92 1011.4
20260502170335 19 23 0.0 0.0 0.23 0.28 0.28 92 1010.8
20260502163803 20 23 0.0 3.2 0.28 0.28 0.28 87 1011.0
20260502163231 20 136 0.0 3.2 0.28 0.28 0.28 86 1011.2
20260502162959 20 206 0.0 3.2 0.28 0.28 0.28 83 1011.4
20260502162232 21 115 0.0 3.2 0.25 0.25 0.25 82 1011.4
20260502161732 22 200 0.0 3.2 0.15 0.15 0.15 81 1011.5
20260502161231 22 61 0.0 3.2 0.15 0.15 0.15 74 1011.3
20260502160730 23 102 1.6 12.9 0.15 0.15 0.15 73 1011.5
20260502160237 23 250 1.6 12.9 0.05 0.05 0.03 68 1011.6
20260502152140 24 271 3.2 6.4 0.00 0.00 0.00 59 1011.8
20260502151903 25 275 1.6 6.4 0.00 0.00 0.00 54 1011.9
20260502151131 25 269 1.6 4.8 0.00 0.00 0.00 54 1012.0
20260502150630 26 93 1.6 4.8 0.00 0.00 0.00 51 1012.0
20260502150546 26 148 1.6 6.4 0.00 0.00 0.00 53 1012.2
20260502130330 24 129 3.2 11.3 0.00 0.00 0.00 57 1013.6
20260502123804 23 28 4.8 12.9 0.00 0.00 0.00 58 1013.8
20260502123232 24 281 4.8 12.9 0.00 0.00 0.00 57 1013.8
20260502122724 24 270 3.2 12.9 0.00 0.00 0.00 56 1014.0
20260502122204 24 230 3.2 9.7 0.00 0.00 0.00 57 1014.1
20260502122127 24 229 3.2 8.0 0.00 0.00 0.00 58 1014.2
20260502121131 24 139 3.2 11.3 0.00 0.00 0.00 58 1014.4
20260502120631 24 274 3.2 11.3 0.00 0.00 0.00 56 1014.4
20260502115530 24 181 3.2 6.4 0.00 0.00 0.00 56 1014.5
20260502115031 24 302 3.2 12.9 0.00 0.00 0.00 56 1014.6
20260502114532 24 237 3.2 12.9 0.00 0.00 0.00 55 1014.6
20260502114032 24 256 3.2 12.9 0.00 0.00 0.00 56 1014.7
20260502113531 24 131 3.2 12.9 0.00 0.00 0.00 55 1014.7
20260502113030 23 218 3.2 11.3 0.00 0.00 0.00 56 1014.7
20260502112536 24 281 3.2 11.3 0.00 0.00 0.00 57 1014.7
20260502112034 23 166 3.2 11.3 0.00 0.00 0.00 56 1014.8
20260502111528 23 326 4.8 12.9 0.00 0.00 0.00 57 1015.0
20260502111511 23 300 3.2 12.9 0.00 0.00 0.00 56 1015.0
20260502110522 23 235 4.8 6.4 0.00 0.00 0.00 57 1015.1
20260502105938 23 64 3.2 14.5 0.00 0.00 0.00 56 1015.0
20260502105659 23 139 3.2 6.4 0.00 0.00 0.00 57 1015.1
20260502104934 23 267 4.8 16.1 0.00 0.00 0.00 58 1015.1
20260502104432 23 316 4.8 16.1 0.00 0.00 0.00 57 1015.3
20260502103932 23 325 4.8 12.9 0.00 0.00 0.00 57 1015.4
20260502103430 22 282 4.8 12.9 0.00 0.00 0.00 58 1015.3
20260502102930 22 209 4.8 9.7 0.00 0.00 0.00 57 1015.4
20260502102402 22 229 3.2 9.7 0.00 0.00 0.00 58 1015.4
20260502102121 22 264 3.2 9.7 0.00 0.00 0.00 58 1015.5
20260502101330 22 294 3.2 9.7 0.00 0.00 0.00 58 1015.6
20260502100832 22 182 3.2 9.7 0.00 0.00 0.00 57 1015.6
20260502100332 22 63 3.2 9.7 0.00 0.00 0.00 57 1015.7
20260502091227 21 305 4.8 11.3 0.00 0.00 0.00 60 1016.0
20260502090706 21 292 3.2 12.9 0.00 0.00 0.00 59 1016.0
20260502090202 20 282 4.8 12.9 0.00 0.00 0.00 59 1016.0
20260502071432 17 278 1.6 4.8 0.00 0.00 0.00 68 1016.3
20260502070929 16 275 0.0 4.8 0.00 0.00 0.00 70 1016.3
20260502070404 16 212 0.0 4.8 0.00 0.00 0.00 71 1016.3
20260502065904 16 283 0.0 4.8 0.00 0.00 0.00 72 1016.4
20260502065844 15 138 0.0 4.8 0.00 0.00 0.00 75 1016.3
20260502064832 15 264 0.0 4.8 0.00 0.00 0.00 76 1016.4
20260502064333 14 87 0.0 1.6 0.00 0.00 0.00 80 1016.4
20260502063830 13 87 0.0 0.0 0.00 0.00 0.00 82 1016.4
20260502063310 13 87 0.0 0.0 0.00 0.00 0.00 85 1016.3
20260502062804 12 88 0.0 0.0 0.00 0.00 0.00 87 1016.3
20260502062306 11 87 0.0 0.0 0.00 0.00 0.00 89 1016.3
20260502061732 11 87 0.0 0.0 0.00 0.00 0.00 89 1016.2
20260502061231 11 87 0.0 0.0 0.00 0.00 0.00 90 1016.3
20260502060730 10 87 0.0 0.0 0.00 0.00 0.00 90 1016.3
20260502060231 10 87 0.0 0.0 0.00 0.00 0.00 91 1016.3
20260502055711 10 87 0.0 0.0 0.00 0.00 0.00 91 1016.2
20260502055204 10 87 0.0 0.0 0.00 0.00 0.00 91 1016.3
20260502054703 9 87 0.0 0.0 0.00 0.00 0.00 91 1016.2
20260502054436 9 87 0.0 0.0 0.00 0.00 0.00 92 1016.3
20260502053647 9 87 0.0 0.0 0.00 0.00 0.00 92 1016.2
20260502053358 8 87 0.0 0.0 0.00 0.00 0.00 93 1016.3
20260502052637 8 87 0.0 0.0 0.00 0.00 0.00 93 1016.3
20260502052136 8 87 0.0 0.0 0.00 0.00 0.00 93 1016.3
20260502051608 8 87 0.0 0.0 0.00 0.00 0.00 93 1016.3
20260502051107 8 87 0.0 0.0 0.00 0.00 0.00 93 1016.2
20260502050804 7 87 0.0 0.0 0.00 0.00 0.00 93 1016.2
20260502050031 7 87 0.0 0.0 0.00 0.00 0.00 93 1016.1
20260502045530 7 87 0.0 1.6 0.00 0.00 0.00 93 1016.1
20260502045032 7 87 0.0 1.6 0.00 0.00 0.00 93 1016.1
20260502044754 7 87 0.0 0.0 0.00 0.00 0.00 93 1016.1
20260502044032 7 87 0.0 0.0 0.00 0.00 0.00 93 1016.1
20260502043750 6 87 0.0 0.0 0.00 0.00 0.00 93 1016.2
20260502043030 6 87 0.0 0.0 0.00 0.00 0.00 93 1016.2
20260502042531 6 87 0.0 3.2 0.00 0.00 0.00 92 1016.2
20260502042026 6 87 0.0 3.2 0.00 0.00 0.00 92 1016.2
20260502041504 6 87 0.0 0.0 0.00 0.00 0.00 92 1016.3
20260502041226 6 87 0.0 0.0 0.00 0.00 0.00 92 1016.4
20260502040504 6 87 0.0 0.0 0.00 0.00 0.00 93 1016.5
20260502035932 6 87 0.0 0.0 0.00 0.00 0.00 93 1016.5
20260502035425 6 87 0.0 1.6 0.00 0.00 0.00 93 1016.5
20260502035123 6 87 0.0 1.6 0.00 0.00 0.00 93 1016.5
20260502034844 6 87 0.0 3.2 0.00 0.00 0.00 93 1016.5
20260502033903 6 87 0.0 3.2 0.00 0.00 0.00 92 1016.6
20260502033403 6 87 0.0 0.0 0.00 0.00 0.00 92 1016.5
20260502032902 6 87 0.0 0.0 0.00 0.00 0.00 92 1016.4
20260502032402 6 87 0.0 0.0 0.00 0.00 0.00 92 1016.4
20260502031833 6 87 0.0 0.0 0.00 0.00 0.00 92 1016.4
20260502031331 6 87 0.0 0.0 0.00 0.00 0.00 92 1016.4
20260502030824 6 87 0.0 0.0 0.00 0.00 0.00 92 1016.5
20260502030303 6 87 0.0 0.0 0.00 0.00 0.00 92 1016.5
20260502025802 6 87 0.0 0.0 0.00 0.00 0.00 92 1016.5
20260502025232 6 87 0.0 0.0 0.00 0.00 0.00 92 1016.6
20260502024731 6 87 0.0 0.0 0.00 0.00 0.00 91 1016.6
20260502024231 6 87 0.0 0.0 0.00 0.00 0.00 92 1016.7
20260502023711 6 87 0.0 0.0 0.00 0.00 0.00 91 1016.7
20260502023428 6 87 0.0 0.0 0.00 0.00 0.00 91 1016.6
20260502022630 6 87 0.0 0.0 0.00 0.00 0.00 91 1016.7
20260502022130 6 87 0.0 0.0 0.00 0.00 0.00 91 1016.7
20260502021603 6 87 0.0 0.0 0.00 0.00 0.00 91 1016.8
20260502021031 6 87 0.0 0.0 0.00 0.00 0.00 91 1016.8
20260502020756 6 87 0.0 0.0 0.00 0.00 0.00 91 1016.8
20260502020010 6 87 0.0 0.0 0.00 0.00 0.00 90 1016.9
20260502015730 6 87 0.0 0.0 0.00 0.00 0.00 90 1017.0
20260502014932 6 87 0.0 0.0 0.00 0.00 0.00 91 1017.0
20260502014430 6 87 0.0 0.0 0.00 0.00 0.00 90 1017.0
20260502013931 6 87 0.0 0.0 0.00 0.00 0.00 90 1017.1
20260502013431 6 87 0.0 0.0 0.00 0.00 0.00 90 1017.1
20260502012930 6 87 0.0 0.0 0.00 0.00 0.00 90 1017.2
20260502012430 7 87 0.0 0.0 0.00 0.00 0.00 90 1017.2
20260502011931 7 87 0.0 0.0 0.00 0.00 0.00 90 1017.2
20260502011437 7 87 0.0 0.0 0.00 0.00 0.00 90 1017.3
20260502010931 7 87 0.0 0.0 0.00 0.00 0.00 89 1017.3
20260502010431 7 87 0.0 0.0 0.00 0.00 0.00 89 1017.4
20260502010153 7 87 0.0 0.0 0.00 0.00 0.00 89 1017.3
20260502005432 7 87 0.0 0.0 0.00 0.00 0.00 89 1017.4